Coeburn, Virginia
Current Conditions -  °F | °C
As of 8:55 PM on Monday 20 Oct 2014 (Local Time) from KLNP Reporting Station
Overcast Overcast  
Wind Chill: 54°   Ceiling: 7500
Heat Index: 54°   Visibility: 10mi
Dew Point: 45°   Wind: 13mph
Humidity: 72%   Direction: 230°SW
Pressure: 30"   Gusts: NA
Location:  36.94°N, 82.46°W
Report Text: KLNP 210055Z AUTO 23011KT 10SM BKN075 OVC090 12/07 A3000 RMK AO2
Loading
Personal Weather Stations






























Interactive Weather Map
Tropical Storm Tracking
New forecast layout! Learn more

10-Day Weather Forecast

Advertisements
Track Severe Weather on mobile